Regional Weather Roundup
Issued by NWS Charleston, SC

Current Version | Previous Version | Graphics & Text | Print | Product List | Glossary On
Versions: 1 2 3 4 5 6 7 8 9 10 11 12 13 14 15 16 17 18 19 20 21 22 23 24 25 26 27 28 29 30 31 32 33 34 35 36 37 38 39 40 41 42 43 44 45 46 47 48 49 50
000
ASUS42 KCHS 252112
RWRCHS

REGIONAL WEATHER ROUNDUP
NATIONAL WEATHER SERVICE CHARLESTON SC
500 PM EDT MON MAY 25 2015

NOTE: "FAIR" INDICATES FEW OR NO CLOUDS BELOW 12,000 FEET WITH NO
SIGNIFICANT WEATHER AND/OR OBSTRUCTIONS TO VISIBILITY.

NOT ALL STATIONS ARE QUALITY CONTROLLED BY THE NATIONAL
WEATHER SERVICE. USE DATA WITH CAUTION...ESPECIALLY
DEWPOINT OBSERVATIONS.

SCZ027-030-031-034>040-042>050-252200-
...SOUTHEAST SOUTH CAROLINA...

CITY           SKY/WX    TMP DP  RH WIND       PRES   REMARKS
N CHARLESTON   PTSUNNY   81  66  60 SE10      30.26F
WATERFRONT PAR   N/A     77  69  76 E12       30.24F
MOUNT PLEASANT FAIR      79  68  69 E10       30.27F
JOHNS ISLAND   PTCLDY    81  70  69 E14       30.27F
PINOPOLIS        N/A     84  66  54 CALM      30.20S
MONCKS CORNER  MOCLDY    82  66  57 SE5       30.26F
SUMMERVILLE    CLOUDY    81  68  65 E6        30.27S
BEAUFORT MCAS  SUNNY     81  69  67 E16       30.24F
BEAUFORT ARPT  MOCLDY    81  70  69 E12       30.25F
HILTON HEAD IS MOSUNNY   79  70  73 NE9G16    30.26F
WALTERBORO     PTCLDY    81  66  61 SE10      30.26S
ALLENDALE      FAIR      82  66  57 SE10G16   30.22F

...SOUTHERN MIDLANDS AND PEE DEE...

CITY           SKY/WX    TMP DP  RH WIND       PRES   REMARKS
GEORGETOWN     NOT AVBL
KINGSTREE      NOT AVBL
ORANGEBURG     PTSUNNY   83  65  54 SE10      30.25F
BARNWELL       MOCLDY    84  68  58 E13G20    30.23F
AIKEN          MOCLDY    84  57  39 E8        30.26F
MANNING        MOCLDY    81  59  47 SE7       30.26F
COLUMBIA       MOSUNNY   85  63  47 SE13      30.23F
SUMTER         NOT AVBL
FLORENCE       CLOUDY    83  63  50 SE13      30.26S
MYRTLE BEACH   MOSUNNY   79  63  57 S12       30.32R
N MYRTLE BEACH SUNNY     77  64  64 SE9       30.30S

$$

GAZ063-065-086>088-099>101-113>116-118-119-134>141-150-252200-
...SOUTHEAST GEORGIA...

CITY           SKY/WX    TMP DP  RH WIND       PRES   REMARKS
SAVANNAH ARPT  PTSUNNY   81  66  60 E16G22    30.23F
HUNTER AAF     MOSUNNY   82  69  65 E14G23    30.21F
FORT STEWART   CLOUDY    80  69  70 E13       30.20S
STATESBORO     PTSUNNY   81  76  85 E5        30.22F
SYLVANIA       CLOUDY    82  72  71 SE5       30.23F
CLAXTON        MOCLDY    81  72  74 SE9       30.21S

...CSRA...CENTRAL AND FAR SOUTHEAST GEORGIA...

CITY           SKY/WX    TMP DP  RH WIND       PRES   REMARKS
THOMSON        MOSUNNY   88  68  52 E9        30.25F HX  92
AUGUSTA-BUSH   MOSUNNY   87  66  49 SE8       30.20F
AUGUSTA-DANIEL MOSUNNY   87  63  44 E6        30.22F
SWAINSBORO     MOCLDY    82  72  69 SE12G17   30.21S
VIDALIA        PTSUNNY   79  73  83 SE3       30.20S
EASTMAN        TSTM      74  74 100 N3        30.23F
HAZLEHURST     MOCLDY    85  73  65 SE8       30.18R HX  92
ALMA           MOSUNNY   84  71  65 SE10G21   30.18F
WAYCROSS       MOSUNNY   86  74  67 SE13G20   30.18F HX  93
JESUP          MOCLDY    86  73  66 SE8       30.21S HX  93
BAXLEY         FAIR      86  72  62 SE12G18   30.18F HX  92
BRUNSWICK      PTSUNNY   82  68  61 E10G18    30.22F
SAINT SIMONS   NOT AVBL

$$

SCZ027-028-034-036>038-045-046-048>050-GAZ119-141-252200-
...LAKE AND SUPPLEMENTAL COASTAL OBSERVATIONS...

STATION/POSITION TIME  TEMP    WIND        PRES    WAVE   SWELL
                       AIR SEA DIR/SP/G            HT/PER HT/PER/DIR
                 (UTC) (F)     (DEG/KT/KT) (MB)    (FT/S) (FT/S/D)
UPR LAKE MARION  NOT AVBL
WINYAH BAY       1945   76     110/  7     1025.0
LAKE MURRAY      2000   80     150/  5/  8 1023.7F
ACE BASIN NERRS  NOT AVBL
FORT PULASKI     2000   77 77   70/ 12/ 14 1025.0F
SAPELO ISLAND    2000   83     100/ 10     1024.0S

$$

ANZ835-935-AMZ111-154-330-350-352-354-370-450-454-472-252200-
...C-MAN AND BUOY OBSERVATIONS...

STATION/POSITION TIME  TEMP    WIND        PRES    WAVE   SWELL
                       AIR SEA DIR/SP/G            HT/PER HT/PER/DIR
                 (UTC) (F)     (DEG/KT/KT) (MB)    (FT/S) (FT/S/D)
BUOY 41004       2050   76 76  100/ 10/ 12 1024.7F   4/ 6   3/ 6
BUOY 41008       2050   77 77  100/  8/ 10 1023.8F   4/ 8   3/100/ 8
FOLLY BEACH CMAN 2100   77      80/ 10/ 11 1025.2F
CAPERS NEARSHORE 2008   76      90/ 10/ 12 1025.6F
FRIPP NEARSHORE  2000   77      90/ 12/ 12 1024.0F


STATION/POSITION TIME  TEMP    WIND        PRES    WAVE   SWELL
                       AIR SEA DIR/SP/G            HT/PER HT/PER/DIR
                 (UTC) (F)     (DEG/KT/KT) (MB)    (FT/S) (FT/S/D)
5E ST. MARYS GA  2021      79                N/A     3/ 8
FRYING PAN BUOY  2050   76 75  130/ 10/ 14 1026.4F   3/ 7   2/120/ 7
BUOY 41025       2050   74 78  160/ 10/ 14 1026.8F   2/ 8   2/ 60/ 8
CAPE LOOKOUT NC  2100   74     140/  9/ 11 1026.2F
BUOY 41002       2050   75 75  110/ 12/ 14 1026.4S   3/ 6   2/ 90/ 6
BUOY 41010       2020   79 82  100/ 14/ 16 1023.0F
ST AUGUSTINE FL  2100   78 79  110/ 14/ 15 1023.3F


$$



USA.gov is the U.S. government's official web portal to all federal, state and local government web resources and services.